�������l�o���
Date,Time,MP-1(��Sv/h),MP-2(��Sv/h),MP-3(��Sv/h),MP-4(��Sv/h),MP-5(��Sv/h),MP-6(��Sv/h),MP-7(��Sv/h),MP-8(��Sv/h),����,����(m/s),���J
2023/02/19,00:00,0.560,0.810,0.509,1.029,0.719,0.321,0.579,0.553,�k,3.3,��
2023/02/19,00:10,0.560,0.811,0.509,1.030,0.717,0.321,0.578,0.552,�k,2.9,��
2023/02/19,00:20,0.561,0.810,0.510,1.030,0.719,0.322,0.579,0.551,�k,2.8,��
2023/02/19,00:30,0.561,0.810,0.509,1.028,0.719,0.320,0.579,0.551,�k�k��,2.9,��
2023/02/19,00:40,0.560,0.808,0.509,1.029,0.719,0.322,0.580,0.551,�k�k��,2.6,��
2023/02/19,00:50,0.561,0.810,0.509,1.029,0.718,0.322,0.579,0.550,�k�k��,2.6,��
2023/02/19,01:00,0.562,0.810,0.509,1.032,0.720,0.323,0.581,0.550,�k�k��,3.0,��
2023/02/19,01:10,0.560,0.810,0.509,1.028,0.717,0.323,0.579,0.552,�k�k��,2.9,��
2023/02/19,01:20,0.561,0.808,0.509,1.031,0.718,0.321,0.578,0.551,�k��,2.9,�L
2023/02/19,01:30,0.563,0.810,0.510,1.029,0.718,0.322,0.580,0.551,�k�k��,2.6,��
2023/02/19,01:40,0.561,0.808,0.511,1.031,0.718,0.322,0.578,0.553,�k�k��,2.6,��
2023/02/19,01:50,0.561,0.809,0.509,1.027,0.719,0.322,0.579,0.551,�k�k��,3.1,��
2023/02/19,02:00,0.561,0.811,0.510,1.026,0.719,0.323,0.579,0.551,�k�k��,2.6,�L
2023/02/19,02:10,0.561,0.811,0.509,1.030,0.718,0.321,0.581,0.551,�k�k��,2.5,�L
2023/02/19,02:20,0.560,0.809,0.509,1.028,0.720,0.321,0.579,0.551,�k,2.9,�L
2023/02/19,02:30,0.561,0.810,0.510,1.030,0.718,0.322,0.579,0.552,�k�k��,3.4,�L
2023/02/19,02:40,0.561,0.810,0.509,1.030,0.718,0.322,0.581,0.552,�k,3.5,�L
2023/02/19,02:50,0.563,0.811,0.511,1.029,0.719,0.321,0.581,0.551,�k,3.1,��
2023/02/19,03:00,0.562,0.811,0.510,1.029,0.718,0.323,0.580,0.551,�k,3.5,��
2023/02/19,03:10,0.563,0.811,0.509,1.030,0.719,0.322,0.581,0.552,�k,4.7,��
2023/02/19,03:20,0.562,0.810,0.511,1.032,0.720,0.322,0.580,0.552,�k�k��,4.6,��
2023/02/19,03:30,0.562,0.811,0.511,1.030,0.718,0.323,0.581,0.552,�k�k��,4.3,��
2023/02/19,03:40,0.561,0.810,0.509,1.028,0.720,0.322,0.581,0.551,�k,4.5,��
2023/02/19,03:50,0.561,0.811,0.509,1.030,0.720,0.322,0.581,0.552,�k�k��,5.0,��
2023/02/19,04:00,0.562,0.811,0.510,1.030,0.720,0.323,0.581,0.552,�k�k��,5.0,��
2023/02/19,04:10,0.562,0.809,0.509,1.031,0.719,0.324,0.580,0.552,�k�k��,4.9,��
2023/02/19,04:20,0.563,0.812,0.510,1.030,0.718,0.323,0.580,0.551,�k�k��,5.7,��
2023/02/19,04:30,0.562,0.811,0.511,1.030,0.717,0.322,0.580,0.552,�k�k��,5.2,��
2023/02/19,04:40,0.561,0.813,0.510,1.031,0.719,0.323,0.580,0.554,�k�k��,6.2,��
2023/02/19,04:50,0.561,0.811,0.510,1.031,0.718,0.323,0.580,0.551,�k�k��,6.5,��
2023/02/19,05:00,0.561,0.809,0.510,1.030,0.719,0.323,0.580,0.551,�k�k��,6.4,��
2023/02/19,05:10,0.560,0.809,0.512,1.029,0.718,0.323,0.582,0.552,�k�k��,5.4,��
2023/02/19,05:20,0.561,0.810,0.509,1.031,0.719,0.322,0.581,0.552,�k�k��,5.5,��
2023/02/19,05:30,0.561,0.810,0.509,1.030,0.719,0.322,0.580,0.551,�k�k��,5.3,��
2023/02/19,05:40,0.562,0.810,0.509,1.028,0.720,0.323,0.579,0.551,�k��,6.2,��
2023/02/19,05:50,0.561,0.809,0.509,1.029,0.719,0.321,0.580,0.552,�k��,5.5,��
2023/02/19,06:00,0.562,0.808,0.511,1.030,0.718,0.322,0.580,0.552,�k��,5.5,��
2023/02/19,06:10,0.560,0.809,0.507,1.029,0.719,0.324,0.581,0.552,�k��,5.6,��
2023/02/19,06:20,0.560,0.809,0.509,1.030,0.719,0.323,0.581,0.552,�k��,5.3,��
2023/02/19,06:30,0.560,0.808,0.508,1.028,0.718,0.325,0.579,0.551,�k��,4.5,��
2023/02/19,06:40,0.560,0.810,0.510,1.029,0.718,0.322,0.581,0.552,�k��,5.2,��
2023/02/19,06:50,0.561,0.811,0.510,1.030,0.720,0.322,0.580,0.552,�k��,4.7,��
2023/02/19,07:00,0.561,0.809,0.510,1.032,0.719,0.322,0.581,0.553,�k��,4.6,��
2023/02/19,07:10,0.562,0.808,0.510,1.031,0.719,0.323,0.581,0.550,�k��,5.0,��
2023/02/19,07:20,0.561,0.810,0.511,1.029,0.718,0.324,0.581,0.551,�k��,5.5,��
2023/02/19,07:30,0.564,0.811,0.511,1.031,0.718,0.324,0.582,0.552,�k��,5.5,��
2023/02/19,07:40,0.562,0.810,0.510,1.030,0.718,0.322,0.582,0.552,�k��,4.5,��
2023/02/19,07:50,0.562,0.811,0.510,1.029,0.719,0.323,0.582,0.551,�k��,4.1,�L
2023/02/19,08:00,0.565,0.813,0.511,1.032,0.719,0.323,0.582,0.552,�k��,3.3,�L
2023/02/19,08:10,0.562,0.810,0.510,1.030,0.721,0.323,0.580,0.553,�k��,4.1,��
2023/02/19,08:20,0.564,0.812,0.510,1.032,0.720,0.323,0.580,0.552,�k��,4.9,�L
2023/02/19,08:30,0.564,0.813,0.513,1.033,0.718,0.323,0.580,0.553,�k��,4.3,�L
2023/02/19,08:40,0.563,0.811,0.511,1.032,0.721,0.325,0.581,0.552,�k��,4.2,�L
2023/02/19,08:50,0.563,0.812,0.512,1.034,0.720,0.325,0.581,0.553,�k��,5.1,�L
2023/02/19,09:00,0.565,0.814,0.512,1.031,0.721,0.323,0.581,0.553,�k�k��,4.8,��
2023/02/19,09:10,0.563,0.812,0.512,1.033,0.722,0.324,0.580,0.554,�k�k��,4.9,��
2023/02/19,09:20,0.563,0.813,0.511,1.032,0.722,0.323,0.581,0.553,�k�k��,4.8,��
2023/02/19,09:30,0.563,0.811,0.511,1.031,0.721,0.324,0.581,0.554,�k�k��,5.0,��
2023/02/19,09:40,0.563,0.813,0.511,1.031,0.719,0.324,0.580,0.553,�k�k��,4.2,�L
2023/02/19,09:50,0.563,0.811,0.510,1.029,0.719,0.323,0.579,0.553,�k�k��,4.1,��
2023/02/19,10:00,0.564,0.811,0.510,1.032,0.719,0.325,0.580,0.555,�k�k��,4.1,�L
2023/02/19,10:10,0.561,0.810,0.511,1.031,0.719,0.323,0.579,0.553,�k�k��,3.7,�L
2023/02/19,10:20,0.565,0.809,0.513,1.031,0.720,0.324,0.580,0.553,�k,2.8,�L
2023/02/19,10:30,0.564,0.810,0.512,1.031,0.719,0.324,0.580,0.554,�k�k��,2.8,�L
2023/02/19,10:40,0.564,0.810,0.512,1.031,0.720,0.324,0.580,0.553,�k�k��,2.3,�L
2023/02/19,10:50,0.563,0.808,0.511,1.031,0.721,0.324,0.580,0.553,�k,2.6,��
2023/02/19,11:00,0.563,0.810,0.511,1.030,0.719,0.324,0.579,0.553,�k,3.1,��
2023/02/19,11:10,0.562,0.810,0.512,1.031,0.718,0.324,0.579,0.551,�k�k��,3.2,�L
2023/02/19,11:20,0.563,0.810,0.511,1.032,0.717,0.324,0.580,0.553,�k�k��,3.0,�L
2023/02/19,11:30,0.562,0.809,0.511,1.032,0.718,0.325,0.580,0.553,�k,2.2,�L
2023/02/19,11:40,0.564,0.813,0.513,1.032,0.719,0.325,0.582,0.553,�k,3.7,�L
2023/02/19,11:50,0.564,0.813,0.514,1.033,0.718,0.327,0.580,0.551,�k,3.0,�L
2023/02/19,12:00,0.565,0.811,0.515,1.031,0.720,0.328,0.583,0.555,�k,4.2,�L
2023/02/19,12:10,0.567,0.813,0.515,1.034,0.720,0.327,0.581,0.554,�k�k��,4.1,�L
2023/02/19,12:20,0.566,0.814,0.514,1.034,0.721,0.328,0.580,0.555,�k�k��,3.9,�L
2023/02/19,12:30,0.568,0.812,0.514,1.033,0.723,0.329,0.579,0.555,�k�k��,2.2,�L
2023/02/19,12:40,0.567,0.814,0.516,1.034,0.723,0.327,0.580,0.555,�k,1.7,�L
2023/02/19,12:50,0.567,0.814,0.514,1.033,0.721,0.327,0.580,0.556,�k,2.6,�L
2023/02/19,13:00,0.566,0.814,0.513,1.032,0.721,0.326,0.580,0.555,�k,3.6,�L
2023/02/19,13:10,0.565,0.811,0.513,1.034,0.723,0.325,0.582,0.555,�k,3.3,�L
2023/02/19,13:20,0.565,0.814,0.513,1.030,0.720,0.324,0.581,0.553,�k,3.3,�L
2023/02/19,13:30,0.566,0.812,0.512,1.032,0.721,0.326,0.580,0.555,�k,4.0,�L
2023/02/19,13:40,0.564,0.811,0.512,1.033,0.720,0.325,0.580,0.554,�k,5.2,��
2023/02/19,13:50,0.563,0.812,0.514,1.031,0.720,0.325,0.579,0.555,�k,5.6,��
2023/02/19,14:00,0.565,0.812,0.512,1.033,0.720,0.324,0.580,0.553,�k,6.3,�L
2023/02/19,14:10,0.564,0.813,0.512,1.031,0.722,0.324,0.579,0.554,�k�k��,6.5,�L
2023/02/19,14:20,0.563,0.811,0.511,1.031,0.719,0.325,0.579,0.553,�k,4.8,�L
2023/02/19,14:30,0.564,0.811,0.512,1.030,0.719,0.323,0.580,0.553,�k,5.3,��
2023/02/19,14:40,0.565,0.811,0.511,1.032,0.721,0.324,0.580,0.554,�k,4.4,��
2023/02/19,14:50,0.564,0.811,0.512,1.031,0.720,0.323,0.579,0.553,�k,4.2,��
2023/02/19,15:00,0.565,0.811,0.509,1.031,0.722,0.324,0.577,0.554,�k�k��,3.4,��
2023/02/19,15:10,0.565,0.811,0.512,1.031,0.720,0.323,0.579,0.553,�k,3.2,��
2023/02/19,15:20,0.564,0.811,0.512,1.029,0.719,0.324,0.579,0.553,�k��,2.5,��
2023/02/19,15:30,0.564,0.811,0.511,1.032,0.721,0.324,0.580,0.553,�k�k��,2.6,��
2023/02/19,15:40,0.564,0.812,0.512,1.029,0.719,0.323,0.580,0.552,�k,3.5,��
2023/02/19,15:50,0.564,0.810,0.512,1.031,0.721,0.323,0.579,0.553,�k,2.0,��
2023/02/19,16:00,0.563,0.810,0.512,1.033,0.719,0.324,0.580,0.554,�k�k��,2.8,��
2023/02/19,16:10,0.564,0.811,0.510,1.031,0.719,0.325,0.580,0.553,���k��,4.4,��
2023/02/19,16:20,0.565,0.810,0.512,1.033,0.720,0.326,0.581,0.554,��,5.0,��
2023/02/19,16:30,0.564,0.810,0.511,1.033,0.719,0.324,0.582,0.552,���k��,5.3,��
2023/02/19,16:40,0.564,0.811,0.512,1.032,0.718,0.324,0.582,0.554,���k��,3.8,��
2023/02/19,16:50,0.564,0.810,0.513,1.031,0.718,0.325,0.581,0.552,�k��,3.6,��
2023/02/19,17:00,0.565,0.809,0.512,1.030,0.719,0.325,0.582,0.554,���k��,6.1,��
2023/02/19,17:10,0.563,0.812,0.511,1.030,0.719,0.324,0.581,0.554,��,10.0,��
2023/02/19,17:20,0.564,0.812,0.512,1.032,0.718,0.324,0.581,0.554,��,11.1,��
2023/02/19,17:30,0.565,0.810,0.510,1.034,0.720,0.325,0.580,0.553,��,9.9,��
2023/02/19,17:40,0.563,0.814,0.511,1.032,0.721,0.324,0.580,0.553,���k��,11.0,��
2023/02/19,17:50,0.565,0.813,0.511,1.032,0.720,0.325,0.582,0.553,���k��,11.4,��
2023/02/19,18:00,0.565,0.813,0.512,1.034,0.720,0.325,0.582,0.555,���k��,9.4,��
2023/02/19,18:10,0.563,0.810,0.510,1.032,0.719,0.324,0.580,0.554,�k��,8.1,��
2023/02/19,18:20,0.563,0.810,0.510,1.032,0.720,0.324,0.581,0.555,�k�k��,6.4,��
2023/02/19,18:30,0.565,0.810,0.512,1.030,0.719,0.322,0.581,0.556,���k��,6.8,��
2023/02/19,18:40,0.564,0.810,0.511,1.031,0.719,0.324,0.582,0.554,���k��,7.1,��
2023/02/19,18:50,0.564,0.810,0.510,1.034,0.719,0.324,0.583,0.555,��,5.8,��
2023/02/19,19:00,0.562,0.811,0.511,1.034,0.719,0.323,0.582,0.554,���k��,7.0,��
2023/02/19,19:10,0.563,0.810,0.511,1.032,0.718,0.323,0.581,0.555,���k��,7.4,��
2023/02/19,19:20,0.562,0.809,0.510,1.033,0.719,0.323,0.582,0.554,���k��,7.3,��
2023/02/19,19:30,0.561,0.810,0.509,1.031,0.719,0.324,0.582,0.554,���k��,6.6,��
2023/02/19,19:40,0.562,0.809,0.510,1.031,0.720,0.323,0.582,0.555,�k��,7.8,��
2023/02/19,19:50,0.562,0.810,0.513,1.033,0.718,0.323,0.582,0.553,�k�k��,4.7,��
2023/02/19,20:00,0.563,0.808,0.509,1.034,0.719,0.323,0.582,0.554,�k��,3.6,��
2023/02/19,20:10,0.563,0.809,0.510,1.032,0.717,0.323,0.582,0.554,�k�k��,4.5,��
2023/02/19,20:20,0.563,0.809,0.511,1.032,0.718,0.324,0.581,0.554,�k�k��,2.9,��
2023/02/19,20:30,0.563,0.810,0.510,1.031,0.718,0.323,0.582,0.555,�k,2.5,��
2023/02/19,20:40,0.561,0.809,0.511,1.031,0.718,0.323,0.582,0.554,�k�k��,2.3,��
2023/02/19,20:50,0.563,0.811,0.511,1.031,0.719,0.324,0.583,0.552,�k��,2.3,��
2023/02/19,21:00,0.562,0.810,0.511,1.030,0.719,0.323,0.583,0.555,��,1.4,��
2023/02/19,21:10,0.563,0.810,0.511,1.033,0.721,0.323,0.582,0.555,�k��,2.0,��
2023/02/19,21:20,0.563,0.809,0.512,1.032,0.719,0.322,0.583,0.553,�k�k��,1.7,��
2023/02/19,21:30,0.563,0.810,0.511,1.032,0.719,0.323,0.583,0.553,�k��,3.0,��
2023/02/19,21:40,0.562,0.810,0.511,1.031,0.718,0.324,0.582,0.554,���k��,3.5,��
2023/02/19,21:50,0.563,0.810,0.511,1.031,0.720,0.324,0.583,0.554,�k�k��,1.8,��
2023/02/19,22:00,0.563,0.809,0.512,1.033,0.720,0.324,0.582,0.552,�k�k��,3.7,��
2023/02/19,22:10,0.561,0.812,0.511,1.030,0.720,0.325,0.583,0.553,�k�k��,3.4,��
2023/02/19,22:20,0.562,0.809,0.510,1.032,0.721,0.323,0.582,0.553,�k�k��,3.3,��
2023/02/19,22:30,0.564,0.812,0.510,1.033,0.719,0.322,0.581,0.552,�k�k��,3.3,��
2023/02/19,22:40,0.564,0.810,0.511,1.032,0.719,0.324,0.581,0.555,�k,0.6,��
2023/02/19,22:50,0.563,0.811,0.510,1.032,0.718,0.322,0.582,0.552,��,1.2,��
2023/02/19,23:00,0.563,0.808,0.509,1.032,0.718,0.324,0.582,0.553,�k��,3.2,��
2023/02/19,23:10,0.563,0.810,0.511,1.032,0.718,0.324,0.583,0.552,��,4.5,��
2023/02/19,23:20,0.564,0.809,0.512,1.031,0.719,0.323,0.582,0.553,���k��,3.6,��
2023/02/19,23:30,0.562,0.811,0.510,1.033,0.718,0.322,0.583,0.553,���k��,5.3,��
2023/02/19,23:40,0.562,0.811,0.509,1.027,0.719,0.324,0.582,0.552,��,5.7,��
2023/02/19,23:50,0.562,0.811,0.510,1.032,0.721,0.324,0.582,0.552,�k��,4.5,��
